Hourly Data Report for July 23, 2021

SARNIA
ONTARIO
Current Station Operator: NAVCAN

42°59'58.000" N
82°18'32.000" W
181.40 m
6127510
71704
YZR

Download Data

Hourly Data (July 2021)
Hourly Data Report for July 23, 2021
TIME
LST
Temp Definition
°C
Dew Point Definition
°C
Rel Hum Definition
%
Precip. Amount Definition
mm

Wind Dir Definition
10's deg

Wind Spd Definition
km/h
Visibility Definition
km
Stn Press Definition
kPa
Hmdx Definition


Wind Chill Definition


Weather Definition


00:00 17.3 14.1 81 0.0 15 5 16.1 100.08     LegendNANA
01:00 16.5 14.4 87 0.0 12 5 16.1 100.11     LegendNANA
02:00 16.2 14.4 89 0.0 16 4 16.1 100.08     LegendNANA
03:00 15.7 14.2 91 0.0 17 8 16.1 100.07     LegendNANA
04:00 14.3 13.2 93 0.0 13 8 16.1 100.06     LegendNANA
05:00 14.6 13.5 93 0.0 13 8 16.1 100.07     LegendNANA
06:00 16.1 14.1 88 0.0 14 9 16.1 100.08     LegendNANA
07:00 17.7 14.5 81 0.0 18 9 16.1 100.08     LegendNANA
08:00 20.1 14.4 69 0.0 17 11 16.1 100.11     LegendNANA
09:00 22.4 15.6 65 0.0 16 11 16.1 100.09 27   LegendNANA
10:00 23.1 15.0 60 0.0 20 13 16.1 100.09 27   LegendNANA
11:00 24.1 15.6 58 0.0 21 13 16.1 100.07 28   LegendNANA
12:00 23.9 15.7 60 0.0 24 18 16.1 100.03 28   LegendNANA
13:00 24.4 14.7 54 0.0 19 17 16.1 99.98 28   LegendNANA
14:00 25.3 16.1 56 0.0 21 15 16.1 99.94 30   LegendNANA
15:00 25.7 15.6 53 0.0 18 15 16.1 99.88 30   LegendNANA
16:00 25.8 15.7 53 0.0 19 18 16.1 99.83 30   LegendNANA
17:00 25.1 14.3 51 0.0 19 15 16.1 99.82 29   LegendNANA
18:00 23.5 13.8 54 0.0 20 18 16.1 99.77 27   LegendNANA
19:00 22.5 13.9 58 0.0 19 11 16.1 99.74 26   LegendNANA
20:00 21.2 14.7 66 0.0 18 8 16.1 99.72 25   LegendNANA
21:00 20.7 15.1 70 0.0 18 8 16.1 99.76 25   LegendNANA
22:00 20.0 14.5 70 0.0 17 9 16.1 99.75     LegendNANA
23:00 20.0 13.5 66 0.0 16 15 16.1 99.70     LegendNANA

Notes on Data Quality.

Legend

  • E = Estimated
  • M = Missing
  • NA = Not Available*
  • [empty] = Indicates an unobserved value
Date modified: